Torna al catalogo

SL-14 DEB

AttivoPO
NORAD 17272·DEBRIS·🇷🇺 Russia

Lanciato Dec 18, 1986 da Plesetsk Cosmodrome

Loading…

Prossimi Passaggi (prossime 24 ore)

TLE

AggiornatoSource: Space-Track

Epoca: Sep 14, 2026, 13:12 UTC

1 17272U 86101G   26257.55002908  .00000556  00000-0  30143-3 0  9996
2 17272  82.4887 197.1265 0019064 352.8209   7.2690 14.10841155 30375

Traccia SL-14 DEB in tempo reale con AllMySat

Download on the App Store